Weather History for Dunkirk, NY

Change the Weather History Date:

Friday, October 14, 2011

  Actual Average Record
Temperature  
Mean Temperature 59 °F -  
Max Temperature 64 °F 64 °F 85 °F (1954)
Min Temperature 54 °F 45 °F 24 °F (1934)
Degree Days  
Heating Degree Days 6    
Growing Degree Days 9 (Base 50)    
Moisture  
Dew Point 53 °F    
Average Humidity 84    
Maximum Humidity 94    
Minimum Humidity 57    
Precipitation  
Precipitation 0.60 in - - ()
Sea Level Pressure  
Sea Level Pressure 29.38 in    
Wind  
Wind Speed 10 mph (SW)    
Max Wind Speed 23 mph    
Max Gust Speed 33 mph    
Visibility 7 miles    
Events Rain    
Averages and records for this station are not official NWS values.
T = Trace of Precipitation, MM = Missing Value Source: NWS Daily Summary

Daily Weather History Graph

Daily Weather History Graph

Search for Another Location

Airport:

Trip Planner

Search our weather history database for the weather conditions in past years. The results will help you decide how hot, cold, wet, or windy it might be!

Date:

Astronomy

Oct. 14, 2011 Rise Set
Actual Time 7:28 AM EDT 6:37 PM EDT
Civil Twilight 7:00 AM EDT 7:05 PM EDT
Nautical Twilight 6:27 AM EDT 7:37 PM EDT
Astronomical Twilight 5:55 AM EDT 8:10 PM EDT
Moon 7:44 PM EDT (10/14) 9:59 AM EDT (10/14)
Length of Visible Light 12h 05m
Length of Day
11h 08m
Waning Gibbous, 94% of the Moon is Illuminated
Oct 14
Waning Gibbous
Oct 19
Last Quarter
Oct 26
New
Nov 2
First Quarter
Nov 10
Full

Hourly Weather History & Observations

Time (EDT) Temp. Dew Point Humidity Pressure Visibility Wind Dir Wind Speed Gust Speed Precip Events Conditions
12:48 AM 64.4 °F 59.0 °F 83% 29.40 in 10.0 mi Calm Calm - 0.03 in   Mostly Cloudy
12:53 AM 64.0 °F 60.1 °F 87% 29.39 in 10.0 mi Calm Calm - 0.03 in   Overcast
1:21 AM 64.4 °F 59.0 °F 83% 29.38 in 10.0 mi South 5.8 mph - N/A   Mostly Cloudy
1:53 AM 64.9 °F 59.0 °F 81% 29.38 in 10.0 mi South 12.7 mph - N/A   Overcast
2:53 AM 64.9 °F 57.9 °F 78% 29.38 in 10.0 mi South 10.4 mph - 0.00 in Rain Light Rain
3:53 AM 63.0 °F 57.9 °F 84% 29.37 in 10.0 mi South 6.9 mph - 0.00 in   Mostly Cloudy
4:53 AM 62.1 °F 57.0 °F 84% 29.35 in 10.0 mi South 13.8 mph - N/A   Overcast
5:53 AM 61.0 °F 55.9 °F 83% 29.34 in 10.0 mi South 8.1 mph - N/A   Mostly Cloudy
6:53 AM 63.0 °F 55.9 °F 78% 29.34 in 10.0 mi South 9.2 mph - N/A   Overcast
7:53 AM 62.1 °F 55.9 °F 80% 29.33 in 10.0 mi South 5.8 mph - 0.00 in   Overcast
9:08 AM 60.8 °F 57.2 °F 88% 29.34 in 1.5 mi WSW 11.5 mph - 0.07 in Rain Heavy Rain
9:12 AM 60.8 °F 57.2 °F 88% 29.35 in 0.8 mi West 10.4 mph - 0.12 in Rain Heavy Rain
9:20 AM 59.0 °F 55.4 °F 88% 29.35 in 1.0 mi WSW 16.1 mph 24.2 mph 0.18 in Rain Heavy Rain
9:31 AM 59.0 °F 55.4 °F 88% 29.35 in 1.8 mi SW 9.2 mph 19.6 mph 0.24 in Rain Rain
9:34 AM 59.0 °F 55.4 °F 88% 29.35 in 3.0 mi SW 9.2 mph 19.6 mph 0.24 in Rain Light Rain
9:45 AM 59.0 °F 55.4 °F 88% 29.34 in 7.0 mi SW 10.4 mph - 0.25 in Rain Light Rain
9:53 AM 59.0 °F 55.9 °F 90% 29.34 in 3.0 mi SSW 8.1 mph - 0.27 in Rain Rain
10:13 AM 59.0 °F 55.4 °F 88% 29.35 in 8.0 mi WSW 21.9 mph 31.1 mph 0.00 in Rain Light Rain
10:50 AM 57.2 °F 55.4 °F 94% 29.36 in 4.0 mi WSW 15.0 mph 24.2 mph 0.04 in Rain Light Rain
10:53 AM 57.9 °F 55.0 °F 90% 29.35 in 6.0 mi WSW 13.8 mph 23.0 mph 0.04 in Rain Light Rain
11:03 AM 57.2 °F 53.6 °F 88% 29.36 in 7.0 mi WSW 13.8 mph 21.9 mph 0.01 in Rain Light Rain
11:14 AM 57.2 °F 53.6 °F 88% 29.36 in 7.0 mi WSW 16.1 mph 21.9 mph 0.02 in Rain Light Rain
11:39 AM 57.2 °F 53.6 °F 88% 29.37 in 5.0 mi SW 10.4 mph 24.2 mph 0.05 in Rain Rain
12:28 PM 57.2 °F 53.6 °F 88% 29.38 in 3.0 mi SW 11.5 mph 26.5 mph 0.04 in Rain Rain
12:46 PM 55.4 °F 53.6 °F 94% 29.38 in 10.0 mi SW 15.0 mph 21.9 mph 0.04 in   Overcast
12:53 PM 57.0 °F 53.1 °F 87% 29.37 in 10.0 mi SW 13.8 mph 21.9 mph 0.04 in   Overcast
1:40 PM 57.2 °F 53.6 °F 88% 29.37 in 5.0 mi SW 16.1 mph 25.3 mph 0.02 in Rain Light Rain
1:50 PM 55.4 °F 53.6 °F 94% 29.37 in 2.5 mi WSW 16.1 mph 20.7 mph 0.04 in Rain Rain
1:53 PM 55.9 °F 53.1 °F 90% 29.37 in 3.0 mi WSW 17.3 mph 25.3 mph 0.05 in Rain Rain
2:06 PM 55.4 °F 53.6 °F 94% 29.37 in 1.8 mi West 11.5 mph 19.6 mph 0.07 in Rain Heavy Rain
2:13 PM 55.4 °F 51.8 °F 88% 29.36 in 1.8 mi West 13.8 mph 20.7 mph 0.09 in Rain Rain
2:16 PM 55.4 °F 51.8 °F 88% 29.36 in 3.0 mi WSW 12.7 mph 21.9 mph 0.10 in Rain Light Rain
3:07 PM 55.4 °F 51.8 °F 88% 29.37 in 2.5 mi WSW 17.3 mph 26.5 mph 0.05 in Rain Rain
3:16 PM 55.4 °F 53.6 °F 94% 29.37 in 8.0 mi SW 12.7 mph 24.2 mph 0.05 in Rain Light Rain
4:53 PM 55.9 °F 50.0 °F 80% 29.39 in 10.0 mi WSW 21.9 mph 31.1 mph 0.00 in Rain Light Rain
5:53 PM 54.0 °F 50.0 °F 86% 29.42 in 10.0 mi WSW 18.4 mph 27.6 mph 0.01 in Rain Light Rain
6:53 PM 55.0 °F 46.9 °F 74% 29.44 in 10.0 mi SW 16.1 mph 27.6 mph 0.00 in Rain Light Rain
7:53 PM 55.0 °F 46.9 °F 74% 29.44 in 10.0 mi West 16.1 mph 32.2 mph 0.11 in   Overcast
8:53 PM 54.0 °F 45.0 °F 72% 29.46 in 10.0 mi West 21.9 mph 32.2 mph 0.04 in   Overcast
9:53 PM 55.0 °F 44.1 °F 67% 29.46 in 10.0 mi West 17.3 mph 28.8 mph 0.01 in Rain Light Rain
10:53 PM 55.0 °F 39.9 °F 57% 29.46 in 10.0 mi West 20.7 mph 33.4 mph 0.00 in   Mostly Cloudy
11:53 PM 55.0 °F 39.9 °F 57% 29.46 in 10.0 mi West 23.0 mph 32.2 mph N/A   Mostly Cloudy